Change the Weather History Date:

Thursday, February 14, 2013

  Actual Average Record
Temperature  
Mean Temperature 35 °F -  
Max Temperature 42 °F 37 °F 57 °F (1990)
Min Temperature 28 °F 24 °F 1 °F (1979)
Degree Days  
Heating Degree Days 30    
Moisture  
Dew Point 30 °F    
Average Humidity 84    
Maximum Humidity 100    
Minimum Humidity 49    
Precipitation  
Precipitation 0.15 in - - ()
Sea Level Pressure  
Sea Level Pressure 29.81 in    
Wind  
Wind Speed 3 mph (NNW)    
Max Wind Speed 7 mph    
Max Gust Speed -    
Visibility 7 miles    
Events Rain , Snow    
Averages and records for this station are not official NWS values.
T = Trace of Precipitation, MM = Missing Value Source: NWS Daily Summary

Daily Weather History Graph

Daily Weather History Graph

Search for Another Location

Airport or City:

Trip Planner

Search our weather history database for the weather conditions in past years. The results will help you decide how hot, cold, wet, or windy it might be!

Date:

Astronomy

Feb. 14, 2013 Rise Set
Actual Time 6:36 AM EST 5:12 PM EST
Civil Twilight 6:07 AM EST 5:40 PM EST
Nautical Twilight 5:35 AM EST 6:13 PM EST
Astronomical Twilight 5:03 AM EST 6:45 PM EST
Moon 8:31 AM EST (2/14) 10:17 PM EST (2/14)
Length of Visible Light 11h 33m
Length of Day
10h 35m
Waxing Crescent, 21% of the Moon is Illuminated
Feb 14
Waxing Crescent
Feb 17
First Quarter
Feb 25
Full
Mar 4
Last Quarter
Mar 11
New

Hourly Weather History & Observations

Time (EST) Temp. Windchill Dew Point Humidity Pressure Visibility Wind Dir Wind Speed Gust Speed Precip Events Conditions
12:52 AM 34.0 °F 31.0 °F 28.0 °F 79% 29.70 in 10.0 mi NNW 3.5 mph - N/A   Overcast
1:20 AM 33.8 °F 30.8 °F 26.6 °F 75% 29.70 in 2.0 mi Variable 3.5 mph - 0.00 in Snow Light Snow
1:26 AM 33.8 °F 29.6 °F 28.4 °F 81% 29.70 in 0.8 mi NNW 4.6 mph - 0.00 in Snow Light Snow
1:34 AM 33.8 °F 30.8 °F 28.4 °F 81% 29.70 in 0.8 mi Variable 3.5 mph - 0.01 in Snow Light Snow
1:43 AM 33.8 °F - 30.2 °F 87% 29.70 in 1.0 mi Calm Calm - 0.02 in Snow Light Snow
1:50 AM 33.8 °F - 30.2 °F 87% 29.70 in 1.0 mi Calm Calm - 0.03 in Snow Light Snow
2:25 AM 33.8 °F - 30.2 °F 87% 29.69 in 2.0 mi Calm Calm - 0.02 in Snow Light Snow
2:47 AM 33.8 °F 29.6 °F 30.2 °F 87% 29.68 in 2.5 mi North 4.6 mph - 0.02 in Snow Light Snow
2:52 AM 33.1 °F 30.0 °F 30.9 °F 92% 29.69 in 2.5 mi Variable 3.5 mph - 0.02 in Snow Light Snow
3:03 AM 33.8 °F 30.8 °F 30.2 °F 87% 29.69 in 1.5 mi Variable 3.5 mph - 0.01 in Snow Light Snow
3:52 AM 33.1 °F - 32.0 °F 96% 29.69 in 1.2 mi Calm Calm - 0.06 in Snow Light Snow
4:29 AM 33.8 °F 29.6 °F 32.0 °F 93% 29.68 in 0.8 mi Variable 4.6 mph - 0.05 in Snow Light Snow
4:44 AM 33.8 °F 29.6 °F 32.0 °F 93% 29.68 in 1.5 mi North 4.6 mph - 0.07 in Snow Light Snow
4:52 AM 33.1 °F 27.7 °F 32.0 °F 96% 29.69 in 2.5 mi North 5.8 mph - 0.07 in Snow Light Snow
4:59 AM 33.8 °F 29.6 °F 32.0 °F 93% 29.69 in 4.0 mi Variable 4.6 mph - 0.00 in Snow Light Snow
5:52 AM 33.1 °F 27.7 °F 32.0 °F 96% 29.72 in 10.0 mi Variable 5.8 mph - 0.00 in   Mostly Cloudy
5:59 AM 33.8 °F 29.6 °F 32.0 °F 93% 29.71 in 10.0 mi North 4.6 mph - N/A   Mostly Cloudy
6:28 AM 33.8 °F 30.8 °F 32.0 °F 93% 29.73 in 10.0 mi Variable 3.5 mph - N/A   Mostly Cloudy
6:36 AM 33.8 °F 30.8 °F 32.0 °F 93% 29.74 in 10.0 mi NW 3.5 mph - N/A   Mostly Cloudy
6:52 AM 33.1 °F 30.0 °F 32.0 °F 96% 29.75 in 10.0 mi North 3.5 mph - N/A   Overcast
7:12 AM 33.8 °F 29.6 °F 33.8 °F 100% 29.75 in 10.0 mi Variable 4.6 mph - N/A   Overcast
7:23 AM 33.8 °F 30.8 °F 33.8 °F 100% 29.75 in 10.0 mi NNW 3.5 mph - N/A   Overcast
7:34 AM 33.8 °F - 33.8 °F 100% 29.76 in 10.0 mi Calm Calm - N/A   Mostly Cloudy
7:52 AM 34.0 °F 31.0 °F 33.1 °F 96% 29.76 in 10.0 mi NNW 3.5 mph - N/A   Mostly Cloudy
8:52 AM 36.0 °F 33.3 °F 35.1 °F 97% 29.81 in 9.0 mi NNW 3.5 mph - N/A   Mostly Cloudy
9:04 AM 37.4 °F 33.8 °F 35.6 °F 93% 29.80 in 6.0 mi Variable 4.6 mph - 0.00 in Rain Light Rain
9:12 AM 37.4 °F 33.8 °F 35.6 °F 93% 29.80 in 10.0 mi Variable 4.6 mph - 0.00 in Rain Light Rain
9:52 AM 39.0 °F 35.7 °F 35.1 °F 86% 29.83 in 10.0 mi North 4.6 mph - 0.00 in   Overcast
10:52 AM 39.9 °F 35.8 °F 33.1 °F 77% 29.87 in 10.0 mi Variable 5.8 mph - N/A   Overcast
11:52 AM 39.9 °F 35.1 °F 28.9 °F 65% 29.89 in 10.0 mi Variable 6.9 mph - N/A   Overcast
12:52 PM 41.0 °F 36.4 °F 26.1 °F 55% 29.91 in 10.0 mi NNW 6.9 mph - N/A   Partly Cloudy
1:52 PM 42.1 °F 37.7 °F 24.1 °F 49% 29.92 in 10.0 mi NNW 6.9 mph - N/A   Partly Cloudy
2:52 PM 41.0 °F 37.1 °F 23.0 °F 49% 29.94 in 10.0 mi Variable 5.8 mph - N/A   Clear
3:52 PM 39.9 °F 37.8 °F 21.9 °F 49% 29.96 in 10.0 mi Variable 3.5 mph - N/A   Clear
4:52 PM 37.9 °F - 23.0 °F 55% 29.98 in 10.0 mi Calm Calm - N/A   Clear
5:52 PM 33.1 °F - 24.1 °F 70% 30.01 in 10.0 mi Calm Calm - N/A   Clear
6:52 PM 30.9 °F - 24.1 °F 76% 30.02 in 10.0 mi Calm Calm - N/A   Clear
7:52 PM 28.0 °F - 24.1 °F 85% 30.02 in 10.0 mi Calm Calm - N/A   Clear
8:52 PM 32.0 °F - 28.0 °F 85% 30.03 in 10.0 mi Calm Calm - N/A   Clear
9:52 PM 32.0 °F 28.7 °F 28.9 °F 88% 30.04 in 10.0 mi SSW 3.5 mph - N/A   Clear
10:52 PM 33.1 °F 30.0 °F 28.9 °F 85% 30.04 in 10.0 mi SSW 3.5 mph - N/A   Clear
11:52 PM 35.1 °F 30.1 °F 28.9 °F 78% 30.04 in 10.0 mi SSW 5.8 mph - N/A   Clear